WetterOnline ( https://www.wetteronline.de )

Wetter aktuell Hoyerswerda

Aktuelles Wetter: Hoyerswerda (116m)

6-stündlich | Neueste Meldungen
Ortszeit Temperatur Wetter
So, 25.09. 8:00 5.8° C Nebel
So, 25.09. 2:00 9.3° C bedeckt
Sa, 24.09. 20:00 12.3° C leicht bewölkt
Sa, 24.09. 14:00 17.5° C wolkig
Sa, 24.09. 8:00 6.6° C bedeckt
Sa, 24.09. 2:00 7.9° C bewölkt
Fr, 23.09. 20:00 11.4° C bedeckt
Fr, 23.09. 14:00 17.0° C bewölkt
Ortszeit Temperatur Wetter
So, 25.09. 9:30 12.1° C wolkig
So, 25.09. 9:20 12.1° C wolkig
So, 25.09. 9:10 10.4° C wolkig
So, 25.09. 9:00 8.5° C wolkenlos
So, 25.09. 8:50 8.5° C wolkenlos
So, 25.09. 8:40 6.9° C wolkenlos
So, 25.09. 8:30 6.3° C wolkenlos
So, 25.09. 8:00 5.8° C Nebel
So, 25.09. 7:30 5.2° C Nebel
So, 25.09. 7:00 5.0° C Nebel
So, 25.09. 6:30 5.6° C Nebel
Ortszeit Relative Feuchte Sichtweite
So, 25.09. 8:00 98% 5.0 km
So, 25.09. 2:00 90% 35 km
Sa, 24.09. 20:00 80% 45 km
Sa, 24.09. 14:00 48% 55 km
Sa, 24.09. 8:00 95% 20 km
Sa, 24.09. 2:00 86% 30 km
Fr, 23.09. 20:00 76% 40 km
Fr, 23.09. 14:00 41% 55 km
Ortszeit Relative Feuchte Sichtweite
So, 25.09. 9:30 79% 35 km
So, 25.09. 9:20 79% -
So, 25.09. 9:10 86% -
So, 25.09. 9:00 97% 12 km
So, 25.09. 8:50 97% -
So, 25.09. 8:40 97% -
So, 25.09. 8:30 97% 21 km
So, 25.09. 8:00 98% 5.0 km
So, 25.09. 7:30 99% 0.4 km
So, 25.09. 7:00 99% 0.2 km
So, 25.09. 6:30 98% 0.2 km
Ortszeit Niederschlagsmenge Niederschlagsart
So, 25.09. 8:00 0.0 l/m2 in 12 Std. -
So, 25.09. 2:00 0.0 l/m2 in 6 Std. -
Sa, 24.09. 20:00 0.0 l/m2 in 12 Std. -
Sa, 24.09. 14:00 0.0 l/m2 in 6 Std. -
Sa, 24.09. 8:00 0.0 l/m2 in 12 Std. -
Sa, 24.09. 2:00 0.0 l/m2 in 6 Std. -
Fr, 23.09. 20:00 0.0 l/m2 in 12 Std. -
Fr, 23.09. 14:00 0.0 l/m2 in 6 Std. -
Ortszeit Niederschlagsmenge Niederschlagsart
So, 25.09. 9:30 0.0 l/m2 in 1 Std. -
So, 25.09. 9:20 keine Meldung -
So, 25.09. 9:10 keine Meldung -
So, 25.09. 9:00 0.0 l/m2 in 1 Std. -
So, 25.09. 8:50 keine Meldung -
So, 25.09. 8:40 keine Meldung -
So, 25.09. 8:30 0.0 l/m2 in 1 Std. -
So, 25.09. 8:00 0.0 l/m2 in 1 Std. -
So, 25.09. 7:30 0.0 l/m2 in 1 Std. -
So, 25.09. 7:00 0.0 l/m2 in 1 Std. -
So, 25.09. 6:30 0.0 l/m2 in 1 Std. -
Ortszeit Stärke Spitze Richtung
km/h Bft. km/h Grad Sektor
So, 25.09. 8:00 4 1 7 240° SW
So, 25.09. 2:00 6 1 11 110° O
Sa, 24.09. 20:00 6 1 15 100° O
Sa, 24.09. 14:00 6 1 13 10° N
Sa, 24.09. 8:00 4 1 11 120° SO
Sa, 24.09. 2:00 7 2 11 130° SO
Fr, 23.09. 20:00 4 1 18 150° SO
Fr, 23.09. 14:00 7 2 22 190° S
Ortszeit Stärke Spitze Richtung
km/h Bft. km/h Grad Sektor
So, 25.09. 9:30 2 1 4 100° O
So, 25.09. 9:20 2 1 - 100° O
So, 25.09. 9:10 2 1 - 100° O
So, 25.09. 9:00 0 0 4 - -
So, 25.09. 8:50 2 1 - 130° SO
So, 25.09. 8:40 0 0 - 140° SO
So, 25.09. 8:30 0 0 4 - -
So, 25.09. 8:00 4 1 4 240° SW
So, 25.09. 7:30 0 0 4 - -
So, 25.09. 7:00 2 1 2 230° SW
So, 25.09. 6:30 0 0 4 - -
Ortszeit Untergrenze Bedeckung Gattung
total tief tief mittel hoch
So, 25.09. 8:00 3300 m 3/8 3/8 - - -
So, 25.09. 2:00 3300 m 8/8 8/8 - - -
Sa, 24.09. 20:00 1800 m 5/8 3/8 - - -
Sa, 24.09. 14:00 3300 m 8/8 8/8 - - -
Sa, 24.09. 8:00 3600 m 8/8 8/8 - - -
Sa, 24.09. 2:00 1500 m 8/8 5/8 - - -
Fr, 23.09. 20:00 6600 m 8/8 8/8 - - -
Fr, 23.09. 14:00 1500 m 7/8 7/8 - - -
Ortszeit Bedeckungsgrad in Achtel und Wolkenuntergrenze
So, 25.09. 9:30 6(2400m)
So, 25.09. 9:20 6(2400m)
So, 25.09. 9:10 5
So, 25.09. 9:00 keine Wolken
So, 25.09. 8:50 keine Wolken
So, 25.09. 8:40 keine Wolken
So, 25.09. 8:30 keine Wolken
So, 25.09. 8:00 3(3300m)
So, 25.09. 7:30 6(3300m)
So, 25.09. 7:00 4(3300m)
So, 25.09. 6:30 2(2100m) 3(4500m)
Ortszeit Luftdruck NN (hPa) Tendenz (hPa in 3 Std.)
So, 25.09. 8:00 1013 + 0,1
So, 25.09. 2:00 1013 - 0,2
Sa, 24.09. 20:00 1013 + 0,2
Sa, 24.09. 14:00 1013 - 0,4
Sa, 24.09. 8:00 1014 - 0,4
Sa, 24.09. 2:00 1016 - 0,8
Fr, 23.09. 20:00 1017 - 0,7
Fr, 23.09. 14:00 1019 - 1,6
Ortszeit Luftdruck NN (hPa) Tendenz (hPa in 3 Std.)
So, 25.09. 9:30 1013 + 0,3
So, 25.09. 9:20 1013 keine Meldung
So, 25.09. 9:10 1013 keine Meldung
So, 25.09. 9:00 1013 + 0,2
So, 25.09. 8:50 1013 keine Meldung
So, 25.09. 8:40 1013 keine Meldung
So, 25.09. 8:30 1013 + 0,1
So, 25.09. 8:00 1013 + 0,1
So, 25.09. 7:30 1013 - 0,1
So, 25.09. 7:00 1013 - 0,3
So, 25.09. 6:30 1013 - 0,4
Ortszeit Schneehöhe (cm)
So, 25.09. 8:00 0
So, 25.09. 2:00 0
Sa, 24.09. 20:00 0
Sa, 24.09. 14:00 0
Sa, 24.09. 8:00 0
Sa, 24.09. 2:00 0
Fr, 23.09. 20:00 0
Fr, 23.09. 14:00 0
Ortszeit Schneehöhe (cm)
So, 25.09. 9:30 0
So, 25.09. 9:20 0
So, 25.09. 9:10 0
So, 25.09. 9:00 0
So, 25.09. 8:50 0
So, 25.09. 8:40 0
So, 25.09. 8:30 0
So, 25.09. 8:00 0
So, 25.09. 7:30 0
So, 25.09. 7:00 0
So, 25.09. 6:30 0
Link zu dieser Seite / Seite empfehlen

Das Wetter in ...